Regional Weather Roundup
Issued by NWS Charleston, SC

Current Version | Previous Version | Graphics & Text | Print | Product List | Glossary On
Versions: 1 2 3 4 5 6 7 8 9 10 11 12 13 14 15 16 17 18 19 20 21 22 23 24 25 26 27 28 29 30 31 32 33 34 35 36 37 38 39 40 41 42 43 44 45 46 47 48 49 50
000
ASUS42 KCHS 261112
RWRCHS

REGIONAL WEATHER ROUNDUP
NATIONAL WEATHER SERVICE CHARLESTON SC
700 AM EDT TUE MAY 26 2015

NOTE: "FAIR" INDICATES FEW OR NO CLOUDS BELOW 12,000 FEET WITH NO
SIGNIFICANT WEATHER AND/OR OBSTRUCTIONS TO VISIBILITY.

NOT ALL STATIONS ARE QUALITY CONTROLLED BY THE NATIONAL
WEATHER SERVICE. USE DATA WITH CAUTION...ESPECIALLY
DEWPOINT OBSERVATIONS.

SCZ027-030-031-034>040-042>050-261200-
...SOUTHEAST SOUTH CAROLINA...

CITY           SKY/WX    TMP DP  RH WIND       PRES   REMARKS
N CHARLESTON   PTCLDY    70  69  97 CALM      30.25R
WATERFRONT PAR   N/A     75  73  93 CALM      30.22R
MOUNT PLEASANT LGT RAIN  70  70 100 CALM      30.25R
JOHNS ISLAND   FOG       72  72 100 CALM      30.25R VSB 1/2
PINOPOLIS        N/A     72  70  94 VRB2      30.17R
MONCKS CORNER  FAIR      68  64  88 CALM      30.26R
SUMMERVILLE    FAIR      66  66 100 CALM      30.26R
BEAUFORT MCAS  CLEAR     72  71  97 E3        30.25R
BEAUFORT ARPT  FAIR      72  72 100 CALM      30.24R
HILTON HEAD IS PTCLDY    73  73 100 CALM      30.25R
WALTERBORO     FOG       63  63 100 CALM      30.27R VSB 1
ALLENDALE      FOG       70  70 100 CALM      30.25R VSB<1/4

...SOUTHERN MIDLANDS AND PEE DEE...

CITY           SKY/WX    TMP DP  RH WIND       PRES   REMARKS
GEORGETOWN     NOT AVBL
KINGSTREE      NOT AVBL
ORANGEBURG     CLOUDY    68  65  90 CALM      30.27R
BARNWELL       FOG       70  70 100 CALM      30.26S VSB<1/4
AIKEN          CLOUDY    68  64  88 SE3       30.30R
MANNING        PTSUNNY   64  57  77 CALM      30.26R
COLUMBIA       CLOUDY    68  64  87 CALM      30.27R
SUMTER         CLOUDY    66  64  94 NE5       30.26R
FLORENCE       CLOUDY    66  64  93 N5        30.28R FOG
MYRTLE BEACH   MOCLDY    75  70  83 SE9       30.28R
N MYRTLE BEACH CLEAR     75  70  84 E5        30.26R

$$

GAZ063-065-086>088-099>101-113>116-118-119-134>141-150-261200-
...SOUTHEAST GEORGIA...

CITY           SKY/WX    TMP DP  RH WIND       PRES   REMARKS
SAVANNAH ARPT  MOCLDY    70  68  93 E3        30.24R
HUNTER AAF     PTCLDY    71  71 100 SE1       30.22R
FORT STEWART   PTCLDY    69  68  95 CALM      30.21R
STATESBORO     PTCLDY    68  32  26 CALM      30.25R HAZE
SYLVANIA       FOG       71  71 100 CALM      30.26R VSB 1/4
CLAXTON        FOG       70  70 100 CALM      30.24R VSB 1/4

...CSRA...CENTRAL AND FAR SOUTHEAST GEORGIA...

CITY           SKY/WX    TMP DP  RH WIND       PRES   REMARKS
THOMSON        CLOUDY    73  71  93 CALM      30.29S
AUGUSTA-BUSH   CLOUDY    70  69  97 E5        30.25R FOG
AUGUSTA-DANIEL CLOUDY    72  68  87 SE7       30.26R
SWAINSBORO     CLOUDY   N/A N/A N/A E3        30.24R
VIDALIA        CLOUDY    72  70  94 E5        30.23R FOG
EASTMAN        CLOUDY    73  73 100 SE3       30.25R
HAZLEHURST     CLOUDY    75  74  99 CALM      30.22R
ALMA           CLOUDY    72  71  97 SE5       30.22R FOG
WAYCROSS       FOG       73  73 100 SE6       30.22R VSB 1/4
JESUP          FAIR      72  72 100 CALM      30.23R FOG
BAXLEY         CLOUDY    73  72  94 SE3       30.22R FOG
BRUNSWICK      PTCLDY    73  70  88 CALM      30.23R
SAINT SIMONS   NOT AVBL

$$

SCZ027-028-034-036>038-045-046-048>050-GAZ119-141-261200-
...LAKE AND SUPPLEMENTAL COASTAL OBSERVATIONS...

STATION/POSITION TIME  TEMP    WIND        PRES    WAVE   SWELL
                       AIR SEA DIR/SP/G            HT/PER HT/PER/DIR
                 (UTC) (F)     (DEG/KT/KT) (MB)    (FT/S) (FT/S/D)
UPR LAKE MARION  NOT AVBL
WINYAH BAY       NOT AVBL
LAKE MURRAY      1000   71     170/  5/  8 1024.0R
ACE BASIN NERRS  NOT AVBL
FORT PULASKI     1000   75 78  110/  4/  5 1023.7R
SAPELO ISLAND    1000   76     140/  5     1023.0S

$$

ANZ835-935-AMZ111-154-330-350-352-354-370-450-454-472-261200-
...C-MAN AND BUOY OBSERVATIONS...

STATION/POSITION TIME  TEMP    WIND        PRES    WAVE   SWELL
                       AIR SEA DIR/SP/G            HT/PER HT/PER/DIR
                 (UTC) (F)     (DEG/KT/KT) (MB)    (FT/S) (FT/S/D)
BUOY 41004       1050   78 76  170/  6/  6 1023.9R   3/ 6   3/ 6
BUOY 41008       1050   76 76  150/  4/  4 1023.7R   2/ 7   2/100/ 7
FOLLY BEACH CMAN 1100   75     170/  3/  3 1024.4R
CAPERS NEARSHORE 1008   75     190/  2/  4 1023.9R
FRIPP NEARSHORE  1000   76     130/  6/  8 1022.9R


STATION/POSITION TIME  TEMP    WIND        PRES    WAVE   SWELL
                       AIR SEA DIR/SP/G            HT/PER HT/PER/DIR
                 (UTC) (F)     (DEG/KT/KT) (MB)    (FT/S) (FT/S/D)
5E ST. MARYS GA  1021      78                N/A     3/ 7
FRYING PAN BUOY  1050   77 74  150/ 12/ 12 1025.8R   3/ 6   2/120/ 6
BUOY 41025       1050   75 77  160/ 16/ 17 1026.6R   3/ 4   2/ 80/ 8
CAPE LOOKOUT NC  1100   74     160/ 11/ 12 1025.9R
BUOY 41002       1050   74 74  130/ 12/ 16 1026.6R   4/ 6   3/100/ 6
BUOY 41010       1020   79 81  110/ 16/ 17 1022.9R
ST AUGUSTINE FL  1100   77 78  140/ 11/ 12 1023.6R


$$



USA.gov is the U.S. government's official web portal to all federal, state and local government web resources and services.